Zurück zum Katalog

YAOGAN-31 J

AktivMilitärLEO
NORAD 47695·PAYLOAD·🇨🇳 China

Gestartet Feb 24, 2021 von Jiuquan Satellite Launch Center

Loading…

Nächste Überflüge (nächste 24 Stunden)

TLE

AktuellSource: Space-Track

Epoche: Sep 14, 2026, 15:39 UTC

1 47695U 21014E   26257.65240873 -.00000082  00000-0  12405-4 0  9993
2 47695  63.4050 327.7610 0184811   1.2567 358.8887 13.45454066272760

Verfolge YAOGAN-31 J in Echtzeit mit AllMySat

Download on the App Store